| time (UTC) | temp F | wind direction | speed MPH | gust MPH | rain 1hr in | rain 24hr in | rain mn in | humidity % | barometer mb |
| 20260509121000 | 55 | 214 | 3.0 | 5.0 | 0.00 | 0.16 | 0.00 | 91 | 1007.4 |
| 20260509120500 | 54 | 211 | 2.0 | 5.0 | 0.00 | 0.16 | 0.00 | 92 | 1007.5 |
| 20260509120004 | 54 | 251 | 3.0 | 5.0 | 0.00 | 0.16 | 0.00 | 92 | 1007.4 |
| 20260509115500 | 54 | 190 | 2.0 | 5.0 | 0.00 | 0.16 | 0.00 | 93 | 1007.4 |
| 20260509115000 | 54 | 158 | 3.0 | 5.0 | 0.00 | 0.16 | 0.00 | 1007.4 | |
| 20260509114501 | 0 | 209 | 1.0 | 4.0 | 0.00 | 0.16 | 0.00 | 94 | 1007.4 |
| 20260509114001 | 53 | 261 | 1.0 | 4.0 | 0.00 | 0.16 | 0.00 | 1 | 1007.3 |
| 20260509112959 | 0 | 207 | 2.0 | 4.0 | 0.00 | 0.16 | 0.00 | 1 | 1007.1 |
| 20260509112500 | 0 | 178 | 2.0 | 4.0 | 0.00 | 0.16 | 0.00 | 94 | 1007.0 |
| 20260509112000 | 52 | 212 | 2.0 | 4.0 | 0.00 | 0.16 | 0.00 | 1006.9 | |
| 20260509111501 | 52 | 196 | 2.0 | 4.0 | 0.00 | 0.16 | 0.00 | 94 | 1006.9 |
| 20260509111000 | 52 | 175 | 2.0 | 3.0 | 0.00 | 0.16 | 0.00 | 94 | 1007.0 |
| 20260509105500 | 52 | 200 | 1.0 | 3.0 | 0.00 | 0.16 | 0.00 | 94 | 1007.0 |
| 20260509104501 | 52 | 224 | 1.0 | 3.0 | 0.00 | 0.16 | 0.00 | 94 | 1007.0 |
| 20260509104001 | 0 | 229 | 1.0 | 3.0 | 0.00 | 0.16 | 0.00 | 94 | 1006.9 |
| 20260509103500 | 52 | 220 | 1.0 | 4.0 | 0.00 | 0.16 | 0.00 | 93 | 1007.0 |
| 20260509103001 | 52 | 214 | 2.0 | 4.0 | 0.00 | 0.16 | 0.00 | 93 | 1007.0 |
| 20260509102001 | 53 | 225 | 2.0 | 6.0 | 0.00 | 0.16 | 0.00 | 93 | 1007.1 |
| 20260509100500 | 53 | 252 | 2.0 | 6.0 | 0.00 | 0.16 | 0.00 | 93 | 1007.1 |
| 20260509100004 | 53 | 232 | 3.0 | 7.0 | 0.00 | 0.16 | 0.00 | 93 | 1007.2 |
| 20260509095500 | 53 | 197 | 3.0 | 7.0 | 0.00 | 0.16 | 0.00 | 93 | 1007.0 |
| 20260509094501 | 53 | 238 | 2.0 | 6.0 | 0.00 | 0.16 | 0.00 | 94 | 1007.0 |
| 20260509093500 | 53 | 221 | 2.0 | 6.0 | 0.00 | 0.16 | 0.00 | 94 | 1007.0 |
| 20260509093000 | 0 | 236 | 3.0 | 6.0 | 0.00 | 0.16 | 0.00 | 94 | 1006.9 |
| 20260509092502 | 53 | 188 | 2.0 | 5.0 | 0.00 | 0.16 | 0.00 | 94 | 1007.0 |
| 20260509091000 | 53 | 229 | 2.0 | 4.0 | 0.00 | 0.16 | 0.00 | 94 | 1007.0 |
| 20260509090549 | 53 | 214 | 2.0 | 4.0 | 0.00 | 0.16 | 0.00 | 94 | 1007.0 |
| 20260509090003 | 53 | 203 | 2.0 | 4.0 | 0.00 | 0.16 | 0.00 | 94 | 1007.1 |
| 20260509085501 | 53 | 227 | 2.0 | 4.0 | 0.00 | 0.16 | 0.00 | 94 | 1007.1 |
| 20260509085000 | 53 | 217 | 2.0 | 4.0 | 0.00 | 0.16 | 0.00 | 94 | 1007.0 |
| 20260509084000 | 53 | 221 | 2.0 | 5.0 | 0.00 | 0.16 | 0.00 | 94 | 1007.0 |
| 20260509082500 | 53 | 228 | 2.0 | 6.0 | 0.00 | 0.16 | 0.00 | 94 | 1006.9 |
| 20260509082000 | 53 | 212 | 1.0 | 4.0 | 0.00 | 0.16 | 0.00 | 94 | 1006.9 |
| 20260509081500 | 53 | 210 | 2.0 | 4.0 | 0.00 | 0.16 | 0.00 | 94 | 1006.9 |
| 20260509081001 | 53 | 207 | 1.0 | 5.0 | 0.00 | 0.16 | 0.00 | 93 | 1006.9 |
| 20260509080500 | 53 | 216 | 2.0 | 5.0 | 0.00 | 0.16 | 0.00 | 93 | 1007.0 |
| 20260509080003 | 54 | 222 | 1.0 | 3.0 | 0.00 | 0.16 | 0.00 | 93 | 1007.0 |
| 20260509075500 | 54 | 229 | 1.0 | 3.0 | 0.00 | 0.16 | 0.00 | 93 | 1007.1 |
| 20260509074500 | 54 | 217 | 1.0 | 4.0 | 0.00 | 0.16 | 0.00 | 93 | 1007.2 |
| 20260509074000 | 54 | 207 | 2.0 | 5.0 | 0.00 | 0.16 | 0.00 | 93 | 1007.2 |
| 20260509073500 | 54 | 236 | 3.0 | 5.0 | 0.00 | 0.16 | 0.00 | 93 | 1007.3 |
| 20260509072500 | 54 | 193 | 1.0 | 4.0 | 0.00 | 0.16 | 0.00 | 93 | 1007.5 |
| 20260509072001 | 54 | 199 | 2.0 | 4.0 | 0.00 | 0.16 | 0.00 | 93 | 1007.5 |
| 20260509071500 | 54 | 224 | 1.0 | 4.0 | 0.00 | 0.16 | 0.00 | 93 | 1007.6 |
| 20260509071000 | 54 | 209 | 1.0 | 5.0 | 0.00 | 0.16 | 0.00 | 93 | 1007.6 |
| 20260509070500 | 54 | 207 | 3.0 | 5.0 | 0.00 | 0.16 | 0.00 | 93 | 1007.6 |
| 20260509070002 | 54 | 251 | 2.0 | 5.0 | 0.00 | 0.16 | 0.00 | 93 | 1007.7 |
| 20260509065500 | 54 | 218 | 2.0 | 5.0 | 0.00 | 0.16 | 0.00 | 93 | 1007.9 |
| 20260509065001 | 54 | 247 | 2.0 | 6.0 | 0.00 | 0.16 | 0.00 | 93 | 1008.0 |
| 20260509064500 | 54 | 236 | 3.0 | 6.0 | 0.00 | 0.16 | 0.00 | 93 | 1008.0 |
| 20260509064001 | 54 | 273 | 3.0 | 6.0 | 0.00 | 0.16 | 0.00 | 93 | 1008.1 |
| 20260509063500 | 54 | 214 | 3.0 | 6.0 | 0.00 | 0.16 | 0.00 | 93 | 1008.1 |
| 20260509063000 | 54 | 237 | 3.0 | 6.0 | 0.00 | 0.16 | 0.00 | 93 | 1008.1 |
| 20260509062500 | 54 | 172 | 3.0 | 6.0 | 0.00 | 0.16 | 0.00 | 93 | 1008.3 |
| 20260509062001 | 54 | 226 | 4.0 | 6.0 | 0.00 | 0.16 | 0.00 | 93 | 1008.2 |
| 20260509061001 | 54 | 163 | 3.0 | 6.0 | 0.00 | 0.16 | 0.00 | 93 | 1008.4 |
| 20260509060502 | 54 | 211 | 3.0 | 6.0 | 0.00 | 0.16 | 0.00 | 93 | 1008.4 |
| 20260509060005 | 54 | 234 | 2.0 | 5.0 | 0.00 | 0.16 | 0.00 | 93 | 1008.5 |
| 20260509055000 | 54 | 231 | 3.0 | 6.0 | 0.00 | 0.16 | 0.00 | 92 | 1008.5 |
| 20260509054500 | 54 | 214 | 4.0 | 6.0 | 0.00 | 0.16 | 0.00 | 92 | 1008.5 |
| 20260509054001 | 54 | 221 | 3.0 | 6.0 | 0.00 | 0.16 | 0.00 | 92 | 1008.5 |
| 20260509053500 | 54 | 223 | 3.0 | 7.0 | 0.00 | 0.16 | 0.00 | 92 | 1008.5 |
| 20260509052001 | 54 | 212 | 3.0 | 6.0 | 0.00 | 0.16 | 0.00 | 92 | 1008.7 |
| 20260509051500 | 54 | 233 | 1.0 | 5.0 | 0.00 | 0.16 | 0.00 | 92 | 1008.6 |
| 20260509051000 | 54 | 167 | 2.0 | 6.0 | 0.00 | 0.16 | 0.00 | 91 | 1008.6 |
| 20260509050500 | 54 | 218 | 3.0 | 6.0 | 0.00 | 0.16 | 0.00 | 1008.5 | |
| 20260509050005 | 54 | 197 | 3.0 | 5.0 | 0.00 | 0.16 | 0.00 | 91 | 1008.5 |
| 20260509045501 | 54 | 189 | 2.0 | 5.0 | 0.00 | 0.16 | 0.00 | 91 | 1008.4 |
| 20260509045004 | 54 | 223 | 2.0 | 6.0 | 0.00 | 0.16 | 0.00 | 91 | 1008.5 |
| 20260509044502 | 54 | 242 | 3.0 | 6.0 | 0.00 | 0.16 | 0.00 | 91 | 1008.5 |
| 20260509044003 | 54 | 203 | 2.0 | 5.0 | 0.00 | 0.16 | 0.00 | 91 | 1008.5 |
| 20260509043501 | 54 | 157 | 3.0 | 5.0 | 0.00 | 0.16 | 0.00 | 91 | 1008.5 |
| 20260509043001 | 54 | 206 | 1.0 | 7.0 | 0.00 | 0.16 | 0.00 | 91 | 1008.6 |
| 20260509042503 | 54 | 184 | 4.0 | 7.0 | 0.00 | 0.16 | 0.00 | 92 | 1008.5 |
| 20260509042004 | 54 | 210 | 4.0 | 7.0 | 0.00 | 0.16 | 0.00 | 92 | 1008.6 |
| 20260509041502 | 0 | 210 | 2.0 | 6.0 | 0.00 | 0.16 | 0.00 | 1008.6 | |
| 20260509041001 | 54 | 216 | 2.0 | 6.0 | 0.00 | 0.16 | 0.00 | 92 | 1008.6 |
| 20260509040007 | 54 | 185 | 3.0 | 6.0 | 0.00 | 0.16 | 0.00 | 92 | 1008.5 |
| 20260509035503 | 0 | 223 | 2.0 | 5.0 | 0.00 | 0.16 | 0.16 | 1008.5 | |
| 20260509034502 | 54 | 225 | 2.0 | 5.0 | 0.00 | 0.16 | 0.16 | 1008.5 | |
| 20260509034002 | 54 | 240 | 2.0 | 4.0 | 0.00 | 0.16 | 0.16 | 93 | 1008.6 |
| 20260509033504 | 54 | 204 | 2.0 | 3.0 | 0.00 | 0.16 | 0.16 | 93 | 1008.7 |
| 20260509033003 | 54 | 225 | 1.0 | 3.0 | 0.00 | 0.16 | 0.16 | 93 | 1008.6 |
| 20260509032502 | 54 | 169 | 1.0 | 3.0 | 0.00 | 0.16 | 0.16 | 93 | 1008.5 |
| 20260509032004 | 54 | 169 | 0.0 | 3.0 | 0.00 | 0.16 | 0.16 | 93 | 1008.5 |
| 20260509031503 | 54 | 139 | 0.0 | 1.0 | 0.00 | 0.16 | 0.16 | 93 | 1008.5 |
| 20260509031002 | 54 | 139 | 0.0 | 3.0 | 0.00 | 0.16 | 0.16 | 93 | 1008.5 |
| 20260509030006 | 54 | 208 | 1.0 | 2.0 | 0.00 | 0.16 | 0.16 | 93 | 1008.7 |
| 20260509025504 | 54 | 219 | 2.0 | 4.0 | 0.00 | 0.16 | 0.16 | 93 | 1008.8 |
| 20260509025002 | 54 | 182 | 1.0 | 4.0 | 0.00 | 0.16 | 0.16 | 92 | 1008.8 |
| 20260509024503 | 54 | 207 | 2.0 | 3.0 | 0.00 | 0.16 | 0.16 | 92 | 1008.9 |
| 20260509024002 | 54 | 193 | 1.0 | 3.0 | 0.00 | 0.16 | 0.16 | 92 | 1008.7 |
| 20260509023502 | 54 | 214 | 1.0 | 4.0 | 0.00 | 0.16 | 0.16 | 92 | 1008.7 |
| 20260509023003 | 54 | 229 | 2.0 | 4.0 | 0.00 | 0.16 | 0.16 | 92 | 1008.9 |
| 20260509022502 | 54 | 185 | 1.0 | 3.0 | 0.00 | 0.16 | 0.16 | 92 | 1008.9 |
| 20260509021502 | 55 | 256 | 2.0 | 4.0 | 0.00 | 0.16 | 0.16 | 92 | 1008.9 |
| 20260509021002 | 55 | 200 | 2.0 | 4.0 | 0.00 | 0.16 | 0.16 | 92 | 1008.9 |
| 20260509020502 | 55 | 201 | 2.0 | 5.0 | 0.00 | 0.16 | 0.16 | 92 | 1008.9 |
| 20260509020007 | 55 | 218 | 2.0 | 5.0 | 0.00 | 0.16 | 0.16 | 91 | 1008.8 |
| 20260509015002 | 55 | 242 | 1.0 | 4.0 | 0.00 | 0.16 | 0.16 | 91 | 1008.8 |
| 20260509014003 | 55 | 229 | 2.0 | 5.0 | 0.00 | 0.16 | 0.16 | 91 | 1008.7 |
| 20260509013002 | 55 | 236 | 3.0 | 6.0 | 0.00 | 0.16 | 0.16 | 91 | 1008.8 |
| 20260509012504 | 55 | 232 | 3.0 | 6.0 | 0.00 | 0.16 | 0.16 | 91 | 1008.7 |
| 20260509012004 | 55 | 224 | 2.0 | 5.0 | 0.00 | 0.16 | 0.16 | 92 | 1008.7 |
| 20260509011002 | 55 | 239 | 2.0 | 5.0 | 0.00 | 0.16 | 0.16 | 92 | 1008.7 |
| 20260509010502 | 55 | 216 | 2.0 | 5.0 | 0.00 | 0.16 | 0.16 | 92 | 1008.7 |
| 20260509010006 | 55 | 203 | 2.0 | 4.0 | 0.00 | 0.16 | 0.16 | 92 | 1008.7 |
| 20260509005502 | 54 | 231 | 2.0 | 6.0 | 0.00 | 0.16 | 0.16 | 92 | 1008.7 |
| 20260509005003 | 54 | 217 | 3.0 | 6.0 | 0.00 | 0.16 | 0.16 | 92 | 1008.7 |
| 20260509004503 | 54 | 189 | 2.0 | 4.0 | 0.00 | 0.16 | 0.16 | 92 | 1008.6 |
| 20260509004003 | 54 | 212 | 3.0 | 4.0 | 0.00 | 0.16 | 0.16 | 93 | 1008.7 |
| 20260509003503 | 54 | 203 | 2.0 | 3.0 | 0.00 | 0.16 | 0.16 | 93 | 1008.6 |
| 20260509003000 | 54 | 153 | 2.0 | 3.0 | 0.00 | 0.16 | 0.16 | 93 | 1008.7 |
| 20260509002002 | 54 | 157 | 2.0 | 4.0 | 0.00 | 0.16 | 0.16 | 93 | 1008.7 |
| 20260509001503 | 54 | 195 | 2.0 | 4.0 | 0.00 | 0.16 | 0.16 | 92 | 1008.8 |
| 20260509001002 | 54 | 170 | 2.0 | 5.0 | 0.00 | 0.16 | 0.16 | 92 | 1008.9 |
| 20260509000502 | 54 | 185 | 3.0 | 5.0 | 0.00 | 0.16 | 0.16 | 92 | 1009.0 |
| 20260509000005 | 54 | 155 | 2.0 | 5.0 | 0.00 | 0.16 | 0.16 | 92 | 1009.1 |
| 20260508235502 | 54 | 197 | 3.0 | 5.0 | 0.00 | 0.16 | 0.16 | 92 | 1009.0 |
| 20260508234502 | 54 | 181 | 3.0 | 5.0 | 0.00 | 0.16 | 0.16 | 91 | 1009.0 |
| 20260508234002 | 54 | 211 | 2.0 | 5.0 | 0.00 | 0.16 | 0.16 | 91 | 1009.1 |
| 20260508233003 | 54 | 201 | 2.0 | 6.0 | 0.00 | 0.16 | 0.16 | 91 | 1009.1 |
| 20260508232502 | 54 | 227 | 1.0 | 5.0 | 0.00 | 0.16 | 0.16 | 91 | 1009.0 |
| 20260508232003 | 54 | 165 | 3.0 | 5.0 | 0.00 | 0.16 | 0.16 | 90 | 1009.0 |
| 20260508231503 | 54 | 219 | 3.0 | 5.0 | 0.00 | 0.16 | 0.16 | 90 | 1009.2 |
| 20260508231002 | 54 | 252 | 2.0 | 6.0 | 0.00 | 0.16 | 0.16 | 90 | 1009.1 |
| 20260508230502 | 55 | 169 | 2.0 | 7.0 | 0.01 | 0.16 | 0.16 | 90 | 1009.1 |
| 20260508230004 | 55 | 255 | 3.0 | 7.0 | 0.01 | 0.16 | 0.16 | 90 | 1009.1 |
| 20260508225503 | 55 | 209 | 2.0 | 6.0 | 0.01 | 0.17 | 0.16 | 90 | 1009.1 |
| 20260508224501 | 55 | 138 | 3.0 | 7.0 | 0.02 | 0.17 | 0.16 | 91 | 1009.1 |
| 20260508224004 | 55 | 160 | 4.0 | 7.0 | 0.02 | 0.17 | 0.16 | 91 | 1008.9 |
| 20260508223504 | 55 | 213 | 3.0 | 9.0 | 0.02 | 0.17 | 0.16 | 91 | 1009.1 |
| 20260508223002 | 55 | 213 | 5.0 | 9.0 | 0.03 | 0.17 | 0.16 | 91 | 1009.2 |
| 20260508222502 | 55 | 206 | 5.0 | 8.0 | 0.04 | 0.17 | 0.16 | 91 | 1009.2 |
| 20260508222002 | 55 | 207 | 3.0 | 6.0 | 0.04 | 0.17 | 0.16 | 91 | 1009.2 |
| 20260508221004 | 55 | 221 | 2.0 | 5.0 | 0.05 | 0.17 | 0.16 | 92 | 1009.2 |
| 20260508220501 | 55 | 195 | 1.0 | 5.0 | 0.04 | 0.16 | 0.15 | 92 | 1009.1 |
| 20260508220006 | 55 | 209 | 2.0 | 4.0 | 0.05 | 0.16 | 0.15 | 91 | 1009.0 |
| 20260508215002 | 55 | 148 | 3.0 | 7.0 | 0.06 | 0.16 | 0.15 | 91 | 1009.0 |
| 20260508214002 | 55 | 229 | 3.0 | 7.0 | 0.06 | 0.15 | 0.14 | 91 | 1009.1 |
| 20260508213503 | 55 | 150 | 2.0 | 4.0 | 0.05 | 0.14 | 0.13 | 91 | 1009.0 |
| 20260508213003 | 56 | 169 | 2.0 | 6.0 | 0.06 | 0.14 | 0.13 | 91 | 1009.3 |
| 20260508212502 | 56 | 235 | 3.0 | 6.0 | 0.06 | 0.13 | 0.12 | 90 | 1009.3 |
| 20260508212003 | 56 | 234 | 3.0 | 7.0 | 0.06 | 0.13 | 0.12 | 90 | 1009.4 |
| 20260508211003 | 56 | 277 | 3.0 | 8.0 | 0.06 | 0.12 | 0.11 | 90 | 1009.5 |
| 20260508210502 | 56 | 262 | 4.0 | 8.0 | 0.06 | 0.12 | 0.11 | 90 | 1009.7 |
| 20260508210006 | 56 | 281 | 5.0 | 8.0 | 0.05 | 0.11 | 0.10 | 89 | 1009.6 |
| 20260508205002 | 56 | 280 | 4.0 | 9.0 | 0.05 | 0.10 | 0.09 | 89 | 1009.8 |
| 20260508204502 | 56 | 290 | 5.0 | 9.0 | 0.04 | 0.09 | 0.08 | 89 | 1009.8 |
| 20260508204002 | 56 | 300 | 4.0 | 8.0 | 0.05 | 0.09 | 0.08 | 89 | 1009.8 |
| 20260508203502 | 56 | 303 | 4.0 | 7.0 | 0.06 | 0.09 | 0.08 | 88 | 1009.8 |
| 20260508203002 | 56 | 297 | 4.0 | 7.0 | 0.06 | 0.08 | 0.07 | 87 | 1009.8 |
| 20260508202503 | 57 | 302 | 5.0 | 8.0 | 0.05 | 0.07 | 0.06 | 87 | 1009.9 |
| 20260508202002 | 57 | 289 | 5.0 | 8.0 | 0.05 | 0.06 | 0.05 | 87 | 1009.9 |
| 20260508201502 | 57 | 296 | 3.0 | 6.0 | 0.05 | 0.06 | 0.05 | 86 | 1009.9 |
| 20260508201004 | 57 | 262 | 2.0 | 5.0 | 0.05 | 0.06 | 0.05 | 86 | 1009.9 |
| 20260508200502 | 57 | 259 | 2.0 | 6.0 | 0.05 | 0.06 | 0.05 | 85 | 1009.9 |
| 20260508200007 | 57 | 243 | 3.0 | 6.0 | 0.05 | 0.06 | 0.05 | 86 | 1010.0 |
| 20260508195502 | 57 | 283 | 4.0 | 7.0 | 0.05 | 0.06 | 0.05 | 85 | 1010.1 |
| 20260508195005 | 57 | 266 | 4.0 | 8.0 | 0.04 | 0.05 | 0.04 | 86 | 1010.4 |
| 20260508194501 | 57 | 284 | 5.0 | 10.0 | 0.04 | 0.05 | 0.04 | 84 | 1010.5 |
| 20260508194002 | 57 | 275 | 6.0 | 10.0 | 0.03 | 0.04 | 0.03 | 82 | 1010.6 |
| 20260508193501 | 58 | 284 | 7.0 | 10.0 | 0.02 | 0.03 | 0.02 | 78 | 1010.5 |
| 20260508193003 | 59 | 285 | 6.0 | 12.0 | 0.01 | 0.02 | 0.01 | 74 | 1010.4 |
| 20260508192502 | 60 | 300 | 6.0 | 12.0 | 0.00 | 0.01 | 0.00 | 73 | 1010.4 |
| 20260508192003 | 0 | 250 | 6.0 | 13.0 | 0.00 | 0.01 | 0.00 | 100 | 1010.2 |
| 20260508191501 | 61 | 229 | 7.0 | 13.0 | 0.00 | 0.01 | 0.00 | 68 | 1010.2 |
| 20260508190501 | 62 | 271 | 6.0 | 13.0 | 0.00 | 0.01 | 0.00 | 63 | 1010.2 |
| 20260508190006 | 62 | 221 | 8.0 | 13.0 | 0.00 | 0.01 | 0.00 | 62 | 1010.2 |
| 20260508185502 | 62 | 260 | 8.0 | 13.0 | 0.00 | 0.01 | 0.00 | 63 | 1010.3 |
| 20260508185002 | 62 | 266 | 10.0 | 15.0 | 0.00 | 0.01 | 0.00 | 1010.3 | |
| 20260508184503 | 62 | 267 | 9.0 | 16.0 | 0.00 | 0.01 | 0.00 | 62 | 1010.5 |
| 20260508184002 | 62 | 241 | 9.0 | 16.0 | 0.00 | 0.01 | 0.00 | 1010.5 | |
| 20260508183002 | 0 | 243 | 10.0 | 15.0 | 0.00 | 0.01 | 0.00 | 100 | 1010.5 |
| 20260508182503 | 63 | 240 | 10.0 | 16.0 | 0.00 | 0.01 | 0.00 | 60 | 1010.5 |
| 20260508182002 | 63 | 262 | 12.0 | 16.0 | 0.00 | 0.01 | 0.00 | 58 | 1010.6 |
| 20260508181501 | 63 | 253 | 11.0 | 18.0 | 0.00 | 0.01 | 0.00 | 58 | 1010.4 |
| 20260508181002 | 0 | 226 | 9.0 | 18.0 | 0.00 | 0.01 | 0.00 | 1010.4 | |
| 20260508180503 | 0 | 236 | 8.0 | 18.0 | 0.00 | 0.01 | 0.00 | 1010.5 | |
| 20260508180006 | 0 | 246 | 12.0 | 18.0 | 0.00 | 0.01 | 0.00 | 1010.5 | |
| 20260508175504 | 0 | 243 | 13.0 | 18.0 | 0.00 | 0.01 | 0.00 | 1010.5 | |
| 20260508175003 | 0 | 255 | 11.0 | 17.0 | 0.00 | 0.01 | 0.00 | 1010.5 | |
| 20260508174502 | 0 | 276 | 10.0 | 17.0 | 0.00 | 0.01 | 0.00 | 1010.6 | |
| 20260508174004 | 0 | 248 | 11.0 | 17.0 | 0.00 | 0.01 | 0.00 | 1010.6 | |
| 20260508173502 | 0 | 254 | 8.0 | 14.0 | 0.00 | 0.01 | 0.00 | 1010.6 | |
| 20260508173002 | 0 | 231 | 8.0 | 17.0 | 0.00 | 0.01 | 0.00 | 1010.6 | |
| 20260508172502 | 0 | 246 | 8.0 | 18.0 | 0.00 | 0.01 | 0.00 | 1010.5 | |
| 20260508172003 | 0 | 256 | 9.0 | 18.0 | 0.00 | 0.01 | 0.00 | 1010.6 | |
| 20260508171501 | 66 | 186 | 8.0 | 14.0 | 0.00 | 0.01 | 0.00 | 57 | 1010.7 |
| 20260508170502 | 0 | 258 | 8.0 | 15.0 | 0.00 | 0.01 | 0.00 | 1010.9 | |
| 20260508170006 | 0 | 203 | 8.0 | 16.0 | 0.00 | 0.01 | 0.00 | 1011.0 | |
| 20260508165502 | 0 | 215 | 10.0 | 16.0 | 0.00 | 0.01 | 0.00 | 1011.2 | |
| 20260508165004 | 0 | 201 | 8.0 | 14.0 | 0.00 | 0.01 | 0.00 | 1011.4 | |
| 20260508164500 | 0 | 230 | 8.0 | 15.0 | 0.00 | 0.01 | 0.00 | 1011.6 | |
| 20260508164003 | 0 | 258 | 9.0 | 15.0 | 0.00 | 0.01 | 0.00 | 1011.7 | |
| 20260508163002 | 0 | 223 | 9.0 | 15.0 | 0.00 | 0.01 | 0.00 | 1011.7 | |
| 20260508162500 | 0 | 219 | 8.0 | 15.0 | 0.00 | 0.01 | 0.00 | 59 | 1011.8 |
| 20260508162001 | 63 | 239 | 8.0 | 12.0 | 0.00 | 0.01 | 0.00 | 59 | 1011.8 |
| 20260508161501 | 0 | 253 | 8.0 | 12.0 | 0.00 | 0.01 | 0.00 | 1011.8 | |
| 20260508161003 | 0 | 240 | 6.0 | 14.0 | 0.00 | 0.01 | 0.00 | 1011.9 | |
| 20260508160500 | 0 | 230 | 10.0 | 14.0 | 0.00 | 0.01 | 0.00 | 1012.1 | |
| 20260508160005 | 0 | 211 | 9.0 | 13.0 | 0.00 | 0.01 | 0.00 | 1012.1 | |
| 20260508155503 | 0 | 240 | 10.0 | 13.0 | 0.00 | 0.01 | 0.00 | 1012.1 | |
| 20260508154502 | 0 | 205 | 7.0 | 14.0 | 0.00 | 0.01 | 0.00 | 1012.1 | |
| 20260508154001 | 0 | 200 | 8.0 | 14.0 | 0.00 | 0.01 | 0.00 | 1012.2 | |
| 20260508153502 | 0 | 227 | 8.0 | 13.0 | 0.00 | 0.01 | 0.00 | 1012.1 | |
| 20260508153001 | 0 | 212 | 9.0 | 12.0 | 0.00 | 0.01 | 0.00 | 1012.1 | |
| 20260508152501 | 0 | 240 | 5.0 | 8.0 | 0.00 | 0.01 | 0.00 | 1012.1 | |
| 20260508152001 | 0 | 244 | 6.0 | 8.0 | 0.00 | 0.01 | 0.00 | 1012.1 | |
| 20260508151502 | 0 | 261 | 5.0 | 9.0 | 0.00 | 0.01 | 0.00 | 1012.2 | |
| 20260508150503 | 0 | 213 | 5.0 | 8.0 | 0.00 | 0.01 | 0.00 | 1012.3 | |
| 20260508150005 | 0 | 259 | 4.0 | 10.0 | 0.00 | 0.01 | 0.00 | 1012.5 | |
| 20260508145502 | 0 | 269 | 6.0 | 13.0 | 0.00 | 0.01 | 0.00 | 1012.4 | |
| 20260508144000 | 0 | 245 | 7.0 | 12.0 | 0.00 | 0.01 | 0.00 | 1012.6 | |
| 20260508143504 | 0 | 232 | 5.0 | 12.0 | 0.00 | 0.01 | 0.00 | 1012.6 | |
| 20260508143000 | 0 | 219 | 5.0 | 9.0 | 0.00 | 0.01 | 0.00 | 1012.7 | |
| 20260508142500 | 0 | 254 | 3.0 | 11.0 | 0.00 | 0.01 | 0.00 | 1012.7 | |
| 20260508142001 | 0 | 256 | 6.0 | 13.0 | 0.00 | 0.01 | 0.00 | 1012.8 | |
| 20260508141502 | 0 | 227 | 8.0 | 13.0 | 0.00 | 0.01 | 0.00 | 1012.9 | |
| 20260508141002 | 0 | 171 | 7.0 | 12.0 | 0.00 | 0.01 | 0.00 | 1012.9 | |
| 20260508140500 | 0 | 248 | 7.0 | 12.0 | 0.00 | 0.01 | 0.00 | 1012.9 | |
| 20260508140004 | 0 | 264 | 6.0 | 10.0 | 0.00 | 0.01 | 0.00 | 1013.0 | |
| 20260508135002 | 0 | 257 | 7.0 | 11.0 | 0.00 | 0.01 | 0.00 | 1013.3 | |
| 20260508134501 | 0 | 250 | 5.0 | 9.0 | 0.00 | 0.01 | 0.00 | 1013.3 | |
| 20260508134001 | 0 | 227 | 5.0 | 10.0 | 0.00 | 0.01 | 0.00 | 1013.3 | |
| 20260508133501 | 0 | 239 | 4.0 | 10.0 | 0.00 | 0.01 | 0.00 | 1013.3 | |
| 20260508133003 | 0 | 243 | 7.0 | 10.0 | 0.00 | 0.01 | 0.00 | 1013.3 | |
| 20260508132500 | 0 | 241 | 4.0 | 9.0 | 0.00 | 0.01 | 0.00 | 1013.2 | |
| 20260508132000 | 0 | 231 | 4.0 | 9.0 | 0.00 | 0.01 | 0.00 | 1013.1 | |
| 20260508131500 | 0 | 246 | 6.0 | 9.0 | 0.00 | 0.01 | 0.00 | 1013.3 | |
| 20260508131002 | 0 | 259 | 5.0 | 8.0 | 0.00 | 0.01 | 0.00 | 1013.3 | |
| 20260508130501 | 0 | 257 | 3.0 | 7.0 | 0.00 | 0.01 | 0.00 | 1013.2 | |
| 20260508130003 | 0 | 205 | 4.0 | 7.0 | 0.00 | 0.01 | 0.00 | 1013.2 | |
| 20260508125502 | 0 | 221 | 2.0 | 6.0 | 0.00 | 0.01 | 0.00 | 1013.3 | |
| 20260508125002 | 0 | 188 | 2.0 | 5.0 | 0.00 | 0.01 | 0.00 | 1013.3 | |
| 20260508124000 | 0 | 238 | 1.0 | 4.0 | 0.00 | 0.01 | 0.00 | 1013.3 | |
| 20260508123500 | 0 | 205 | 2.0 | 4.0 | 0.00 | 0.01 | 0.00 | 1013.4 | |
| 20260508123002 | 0 | 200 | 2.0 | 4.0 | 0.00 | 0.01 | 0.00 | 1013.3 | |
| 20260508122501 | 0 | 195 | 2.0 | 4.0 | 0.00 | 0.01 | 0.00 | 1013.2 | |
| 20260508122001 | 0 | 180 | 2.0 | 3.0 | 0.00 | 0.01 | 0.00 | 1013.3 | |
| 20260508121500 | 0 | 221 | 1.0 | 3.0 | 0.00 | 0.01 | 0.00 | 1013.2 |